Вернуться в каталог

SL-12 DEB

LostHEO
NORAD 25807·DEBRIS·🇷🇺 Russia

Запущен Sep 16, 1987 с Baikonur Cosmodrome

Loading…

Ближайшие Пролёты (ближайшие 24 часа)

TLE

УстаревшееSource: Space-Track

Эпоха: Jan 31, 2025, 17:01 UTC

1 25807U 87079S   25031.70937398  .00001489  00000-0  15145-2 0  9990
2 25807  65.1031 181.5852 5405636 318.1075  11.1700  4.81117857446336

Отслеживайте SL-12 DEB в реальном времени с AllMySat

Download on the App Store